This demonstration page uses our WeatherBlox Daily Observations layout. Learn more.

Left ArrowRight Arrow

39.92423, -83.80882

Hourly Observations for February 12, 2021

Temp ( °F °C ) Dew Point ( °F °C ) Humidity (%) Winds ( mph kmh ) Pressure ( in mb ) Visibility ( mi km ) Precip ( " mm )
12:56 am 00:56 Cloudy 17 -8.3 14 -10 88 88 NE 13 20 30.22 1024 10 16 0.00 0.00
1:56 am 01:56 Cloudy 18 -7.8 14 -10 84 84 NE 14 22 30.21 1023 10 16 0.00 0.00
2:56 am 02:56 Cloudy 18 -7.8 14 -10 84 84 NE 10 17 30.22 1023 10 16 0.00 0.00
3:56 am 03:56 Cloudy 19 -7.2 14 -10 81 81 N 10 17 30.22 1023 10 16 0.00 0.00
4:56 am 04:56 Cloudy 20 -6.7 15 -9.4 81 81 NNE 12 19 30.23 1024 9 14 0.00 0.00
5:56 am 05:56 Cloudy 20 -6.7 15 -9.4 81 81 NE 13 20 30.22 1023 10 16 0.00 0.00
6:56 am 06:56 Cloudy 20 -6.7 15 -9.4 81 81 ENE 9 15 30.22 1023 10 16 0.00 0.00
7:56 am 07:56 Cloudy 21 -6.1 15 -9.4 78 78 N 10 17 30.27 1025 10 16 0.00 0.00
8:56 am 08:56 Cloudy 21 -6.1 16 -8.9 81 81 NNE 8 13 30.27 1025 10 16 0.00 0.00
9:56 am 09:56 Cloudy 22 -5.6 16 -8.9 78 78 E 7 11 30.26 1025 10 16 0.00 0.00
10:56 am 10:56 Cloudy 24 -4.4 16 -8.9 71 71 Calm 30.28 1026 10 16 0.00 0.00
11:56 am 11:56 Cloudy 25 -3.9 17 -8.3 72 72 Calm 30.27 1025 10 16 0.00 0.00
12:56 pm 12:56 Cloudy 28 -2.2 19 -7.2 69 69 WNW 6 9 30.26 1025 10 16 0.00 0.00
1:56 pm 13:56 Partly Cloudy 27 -2.8 19 -7.2 72 72 NNW 12 19 30.25 1024 10 16 0.00 0.00
2:56 pm 14:56 Sunny 27 -2.8 19 -7.2 72 72 NNW 9 15 30.26 1025 10 16 0.00 0.00
3:56 pm 15:56 Sunny 26 -3.3 19 -7.2 75 75 NNW 13 20 30.25 1025 10 16 0.00 0.00
4:56 pm 16:56 Sunny 26 -3.3 19 -7.2 75 75 NNW 13 20 30.27 1025 10 16 0.00 0.00
5:56 pm 17:56 Sunny 24 -4.4 18 -7.8 77 77 N 15 24 30.27 1025 10 16 0.00 0.00
6:56 pm 18:56 Clear 23 -5 19 -7.2 85 85 NNW 5 7 30.30 1026 10 16 0.00 0.00
7:56 pm 19:56 Clear 22 -5.6 18 -7.8 85 85 NNE 10 17 30.32 1027 10 16 0.00 0.00
8:56 pm 20:56 Cloudy 22 -5.6 18 -7.8 85 85 NNE 12 19 30.30 1026 10 16 0.00 0.00
9:56 pm 21:56 Cloudy 22 -5.6 19 -7.2 89 89 NNE 12 19 30.30 1026 10 16 0.00 0.00
10:56 pm 22:56 Cloudy 22 -5.6 20 -6.7 92 92 NE 12 19 30.27 1025 10 16 0.00 0.00
11:56 pm 23:56 Cloudy 22 -5.6 19 -7.2 89 89 NE 10 17 30.28 1025 10 16 0.00 0.00

Powered by AerisWeather